Simultaneous Nadir Overpasses (SNOs) Predictions

Prediction of SNOs between AQUA and NOAA-19 Satellite Orbit:

Table of predicted SNOs for the next 14.0 days since TLE Epoch: 8/6/2022
Index Date (AQUA) Time (AQUA) Lat,Lon (AQUA) SZA (AQUA ) Date (NOAA-19) Time (NOAA-19) Lat,Lon (NOAA-19) SZA (NOAA-19 ) Distance(km) Time Diff (sec)
1 08/07/2022 13:54:33 77.43, -44.03 61.63 08/07/2022 13:54:25 77.42, -44.07 61.62 2.28 8
2 08/09/2022 19:27:45 -77.42, 52.74 117.76 08/09/2022 19:27:23 -77.43, 52.82 117.75 2.09 22
3 08/09/2022 20:17:12 77.44,-139.70 62.28 08/09/2022 20:18:17 77.45,-139.81 62.28 2.66 65
4 08/12/2022 01:00:58 77.41, 149.48 62.89 08/12/2022 01:00:11 77.40, 149.58 62.88 2.76 47
5 08/12/2022 01:50:24 -77.43, -42.95 117.09 08/12/2022 01:51:16 -77.43, -43.07 117.09 2.93 52
6 08/14/2022 06:34:09 -77.36,-113.60 116.51 08/14/2022 06:33:10 -77.39,-113.64 116.46 3.56 59
7 08/14/2022 07:23:37 77.43, 53.74 63.59 08/14/2022 07:24:03 77.43, 53.82 63.58 1.94 26
8 08/16/2022 12:07:12 76.91, -15.17 63.64 08/16/2022 12:06:09 76.88, -19.11 63.91 99.45 63
9 08/16/2022 12:56:49 -77.43, 150.47 115.73 08/16/2022 12:57:02 -77.42, 150.62 115.75 3.81 13
10 08/18/2022 18:30:01 77.41,-112.75 64.96 08/18/2022 18:29:49 77.40,-112.60 64.94 3.81 12



Historial Predications of SNOs between AQUA and NOAA-19
